BEESAT-4 (41619 NORAD) Tracking and Keplerian Element Data

This shows tracking and keplerian element data for the satellite.

Feedback or suggestion? Click here.




ElementValue
Catalog41619
NameBEESAT-4
Epoch Orbit28025
Epoch Day268.4071632
Epoch Year2021
RAAN321.6752
Inclination97.2588
Eccentricity0.0009809
Argument of Perigee347.4722
Mean Anonmoly12.6272
Mean Motion15.26069685
Decay Rate4.267E-05
L11 41619U 16040W 21268.40716320 .00004267 00000-0 16817-3 0 9999
L22 41619 97.2588 321.6752 0009809 347.4722 12.6272 15.26069685280258

Live tracking and technical data element details for BEESAT-4 (NORAD 41619). BEESAT-4 can be tracked NOW for your location showing map with azimuth and elevation plus other details from your city location.

Track the satellite on the map from your city or location and see movement details for azimuth, elevation, latitude, longitude, range, height, and movement on the map or in text.







IsCatalogInMostPopularTable: catalog: 41619, numindb: 548
Update: records affected: 1



GetName: 41619 BEESAT-4

Hit Count: updated at: Mon, 27 Sep 2021 00:05:18 GMT